www.pogodaiklimat.ru
ПОГОДА в Эврике
Время
(UTC), дата
21:53 26.02
22:53 26.02
23:53 26.02
00:53 26.02
01:53 26.02
02:53 26.02
03:53 26.02
04:53 26.02
05:53 26.02
06:53 26.02
07:53 27.02
08:53 27.02
09:53 27.02
10:53 27.02
12:53 27.02
13:53 27.02
14:53 27.02
15:53 27.02
16:53 27.02
17:53 27.02
18:53 27.02
19:53 27.02
20:53 27.02
21:53 27.02
22:53 27.02
23:53 27.02
00:53 27.02
01:53 27.02
02:53 27.02
03:53 27.02
04:53 27.02
05:53 27.02
06:53 27.02
07:53 28.02
08:53 28.02
09:53 28.02
10:53 28.02
11:53 28.02
12:53 28.02
13:53 28.02
14:53 28.02
15:53 28.02
16:53 28.02
17:53 28.02
18:53 28.02
19:53 28.02
20:53 28.02
21:53 28.02
Ветер
(напр.,м/с)
Видим. Явления Облачность Т
(С)
Тd
(С)
f
(%)
Тe
(С)
Тes
(С)
Комфортность P
(гПа)
Po
(гПа)
Тmin
(С)
Tmax
(С)
R
(мм)
R24
(мм)
S
(см)
СЗ 5
{10}
н/о н/о +14.4 -12.8 14 +13 +13 1025.8 824.6
СЗ 7 н/о н/о +13.9 -13.3 14 +12 +12 1026.2 824.3 +5.6 +15.0
С 4 н/о н/о +11.7 -12.2 17 +10 +10 1026.7 824.9
0 н/о н/о +5.0 -12.2 28 +5 +5 1029.6 825.4
С 4 н/о н/о +2.2 -12.2 34 -2 -2 1030.3 826.0
Ю 4 н/о н/о -2.8 -12.8 46 -8 -8 1030.9 826.2
Ю 3 н/о н/о -2.8 -12.8 46 -7 -7 1030.4 826.5
Ю 4 н/о н/о -4.4 -12.8 52 -11 -11 1030.1 826.8 -5.6 +13.9
Ю 4 н/о н/о -4.4 -12.2 54 -10 -10 1029.5 826.8
Ю 4 н/о н/о -5.0 -12.2 57 -11 -11 1028.7 826.5
Ю 4 н/о н/о -5.6 -12.2 60 -12 -12 1028.3 826.5
ЮВ 1 н/о н/о -4.4 -11.7 57 -7 -7 1027.9 826.5
ЮЗ 3 н/о н/о -8.9 -14.4 64 -15 -15 1028.7 826.5
Ю 4 н/о н/о -5.0 -12.2 57 -12 -12 1028.0 826.5 -9.4 -2.8
Ю 4 н/о н/о -5.6 -12.2 60 -12 -12 1030.5 826.8
ЮЗ 4 н/о н/о -6.1 -12.2 62 -13 -13 1031.8 827.3
ЮЗ 2 н/о н/о -0.6 -11.1 45 -4 -4 1032.1 827.6
0 н/о н/о +3.9 -10.6 34 +4 +4 1031.4 827.9
0 н/о н/о +7.8 -11.1 25 +8 +8 1030.8 827.9 -7.2 +8.3
нст 3 н/о н/о +10.0 -11.1 21 +9 +9 1030.1 827.6
нст 2 н/о н/о +10.6 -10.6 21 +10 +10 1029.5 827.3
СВ 4 н/о н/о +12.2 -11.1 18 +11 +11 1028.2 826.2
С 3 н/о н/о +13.9 -11.7 16 +13 +13 1026.7 825.7
0 н/о н/о +13.3 -11.7 16 +13 +13 1027.5 825.4
СВ 4 н/о н/о +13.3 -12.2 16 +12 +12 1026.2 825.1 +7.8 +13.9
СВ 4 н/о н/о +11.7 -11.7 18 +10 +10 1026.8 825.4
СЗ 2 н/о н/о +2.8 -13.3 29 0 0 1029.3 825.7
Ю 3 н/о н/о 0.0 -12.8 37 -4 -4 1030.8 826.2
Ю 3 н/о н/о -2.8 -12.2 48 -8 -8 1030.3 826.2
Ю 1 н/о н/о -3.9 -12.8 50 -7 -7 1030.1 826.5
Ю 3 н/о н/о -2.8 -11.7 50 -7 -7 1029.1 826.8 -5.6 +13.3
Ю 2 н/о н/о -5.6 -12.8 57 -10 -10 1028.8 826.5
Ю 3 н/о н/о -5.0 -11.7 59 -10 -10 1028.1 826.2
Ю 3 н/о н/о -7.2 -13.3 62 -13 -13 1028.1 826.0
ЮЗ 4 н/о н/о -6.1 -12.2 62 -12 -12 1026.9 825.7
Ю 3 н/о н/о -6.1 -12.2 62 -11 -11 1026.5 825.1
ЮЗ 4 н/о н/о -5.6 -11.7 62 -12 -12 1026.0 824.9 -7.8 -2.8
ЮЗ 3 н/о н/о -6.1 -12.2 62 -12 -12 1026.6 824.9
Ю 4 н/о н/о -6.7 -12.2 65 -13 -13 1028.3 824.6
ЮЗ 3 н/о н/о -6.1 -11.7 65 -12 -12 1028.6 824.3
0 н/о н/о -1.1 -10.0 51 -2 -2 1028.2 824.6
0 н/о н/о +3.9 -10.6 34 +4 +4 1027.6 824.6
0 н/о н/о +8.3 -10.0 26 +8 +8 1026.0 824.6 -6.7 +8.3
0 н/о н/о +10.6 -10.0 22 +11 +11 1025.0 823.8
0 н/о н/о +12.2 -10.6 19 +12 +12 1023.4 823.0
нст 3 н/о н/о +13.9 -11.7 16 +13 +13 1022.2 821.9
Ю 7
{10}
н/о н/о +14.4 -11.7 15 +13 +13 1020.7 821.1
ЮВ 6 н/о н/о +15.0 -11.7 15 +14 +14 1020.0 820.5
Местоположение метеостанции Eureka: широта 39.6014 долгота -116.0056 высота над уровнем моря 1812 м.
В архиве по умолчанию представлена погода в Эврике за последние 1-2 суток. Обновление информации о фактической погоде в базе происходит ежечасно! Архивные данные за месяц целиком и за предыдущие месяцы Вы можете получить, выбрав интересующий диапазон дат из раскрывающегося списка и нажав кнопку "Ввод!".
Внимание! Архив погоды МЕТАР в базе сайта по станциям, не включенным в климатический монитор, хранится не более 60 дней. Нет смысла пытаться выбрать более раннюю дату.
*Определитесь, кто Вы:
Внимание! Время в таблицах - всемирное. Для получения местного времени необходимо прибавить поправку, которая равна ч.
Смотрите также архив погоды в соседних городах и на ближайших метеорологических станциях:
Партнеры нашего сайта:      
Пояснения к столбцам:
  • Ветер - указаны скорость ветра в м/с - средняя за 10 мин, порывы в срок и между сроками (в фигурных скобках) и направление, откуда дует ветер: С - северный,
  • СВ - северо-восточный, В - восточный, ЮВ - юго-восточный, Ю - южный, ЮЗ - юго-западный, З - западный, СЗ - северо-западный.
  • Видимость - горизонтальная дальность видимости в метрах или километрах. При видимости от 1 до 10 км при отсутствии осадков обычно наблюдается дымка, при ухудшении видимости до 1 км и менее - туман. В сухую погоду видимость может ухудшаться дымом, пылью или мглою.
  • Явления - указаны атмосферные явления, наблюдавшиеся в срок или в последний час перед сроком; фигурными скобками обозначены явления, наблюдавшиеся между сроками (за 1-3 часа до срока); квадратными скобками обозначены град или гололедные отложения с указанием их диаметра в мм.
  • Облачность - указаны через наклонную черту общая и нижняя облачность в баллах и высота нижней границы облаков в метрах; квадратными скобками обозначены формы облаков: Ci - перистые, Cs - перисто-слоистые, Cc - перисто-кучевые, Ac - высококучевые, As - высокослоистые, Sc - слоисто-кучевые, Ns - слоисто-дождевые, Cu - кучевые, Cb - кучево-дождевые. Подробнее классификацию облаков см. в Атласе облаков (PDF).
  • T - Температура воздуха - температура, измеренная на высоте 2 м над землей.
  • Td - Температура точки росы - температура, при понижении до которой содержащийся в воздухе водяной пар достигнет насыщения.
  • f - Относительная влажность воздуха - влажноcть воздуха, измеренная на высоте 2 м над землей.
  • Te - Эффективная температура - температура, которую ощущает одетый по сезону человек в тени. Характеристика душности погоды. При расчете учитывается влияние влажности воздуха и скорости ветра на теплоощущения человека.
  • Tes - Эффективная температура на солнце - температура, которую ощущает человек, с поправкой на солнечный нагрев. Характеристика знойности погоды. Зависит от высоты солнца над горизонтом, облачности и скорости ветра. Ночью, в пасмурную погоду, а также при ветре 12 м/с и более поправка равна нулю.
  • P - Атмосферное давление - приведенное к уровню моря атмосферное давление.
  • Po - Атмосферное давление - измеренное на уровне метеостанции атмосферное давление.
  • Tmin - Минимальная температура - минимум температуры воздуха на высоте 2 м над землей.
  • Tmax - Максимальная температура - максимум температуры воздуха на высоте 2 м над землей.
  • R - Количество осадков - Количество выпавших осадков за период времени, мм. При наведении курсора мыши на число - период времени, за который выпало указанное количество осадков.
  • R24 - Количество осадков - Количество выпавших осадков за 24 часа, мм.
  • S - Снежный покров - Высота снежного покрова, см. При наведении курсора мыши на число - состояние снежного покрова и степень покрытия местности в баллах.